Flag for Spain Weather past 2 weeks in Valencia, Spain

Now
77 °F

Passing clouds.


Feels Like: 79 °F
Forecast: 76 / 82 °F
Wind: 2 mph from North

Location: Valencia / Aeropuerto

Current Time: Aug 20, 2014 at 7:15:04 AM

Latest Report: Aug 20, 2014 at 6:30 AM


Visibility: N/A

Pressure: 29.95 "Hg

Humidity: 79%

Dew point: 70 °F

Location of ValenciaLocation

Historic Weather in Valencia — Graph

°F

Valencia temperature yesterday

Maximum temperature yesterday: 84 °F (at 12:30 PM)
Minimum temperature yesterday: 70 °F (at 6:00 AM)
Average temperature yesterday: 78 °F

Past Weeks' High & Low Weather Summary

 TemperatureHumidityPressure
High97 °F (Aug 10, 6:30 PM)89% (Aug 6, 7:00 AM)30.15 "Hg (Aug 6, 7:00 AM)
Low70 °F (Aug 18, 6:00 AM)28% (Aug 10, 6:30 PM)29.77 "Hg (Aug 10, 6:30 PM)
Average80 °F68%29.96 "Hg
* Reported Aug 5 6:00 AM — Aug 20 6:00 AM, Valencia, Weather by CustomWeather, © 2014

Note: Actual official high and low records may vary slightly from our data, if they occured in-between our weather recording intervals... More about our weather records

Advertising

Valencia weather history for previous 24 hours

 ConditionsComfort  
Time TempWeatherWind HumidityBarometerVisibility
6:00 AM
Aug 20
77 °FPassing clouds.3 mph79%29.95 "HgN/A
5:30 AM77 °FPassing clouds.2 mph79%29.95 "HgN/A
5:00 AM77 °FPassing clouds.3 mph79%29.95 "HgN/A
4:30 AM77 °FPassing clouds.3 mph79%29.95 "HgN/A
4:00 AM77 °FPassing clouds.5 mph79%29.95 "HgN/A
3:30 AM77 °FPartly cloudy.5 mph79%29.95 "HgN/A
3:00 AM77 °FPartly cloudy.5 mph79%29.95 "HgN/A
2:30 AM77 °FPassing clouds.5 mph79%29.95 "HgN/A
2:00 AM77 °FPassing clouds.5 mph79%29.98 "HgN/A
1:30 AM77 °FPassing clouds.5 mph79%29.98 "HgN/A
1:00 AM79 °FPassing clouds.5 mph74%29.98 "HgN/A
12:30 AM79 °FPartly cloudy.5 mph74%29.98 "HgN/A
12:00 AM79 °FPartly cloudy.6 mph74%29.98 "HgN/A
11:30 PM
Aug 19
79 °FPartly cloudy.6 mph74%29.98 "HgN/A
11:00 PM79 °FPartly cloudy.5 mph74%29.98 "HgN/A
10:30 PM79 °FPassing clouds.6 mph74%29.95 "HgN/A
10:00 PM79 °FPassing clouds.6 mph74%29.95 "HgN/A
9:30 PM79 °FScattered clouds.8 mph74%29.95 "HgN/A
9:00 PM79 °FPartly sunny.9 mph74%29.92 "HgN/A
8:30 PM79 °FPartly sunny.9 mph74%29.92 "HgN/A
8:00 PM79 °FPartly sunny.9 mph74%29.92 "HgN/A
7:30 PM79 °FPartly sunny.9 mph74%29.92 "HgN/A
7:00 PM81 °FPartly sunny.12 mph70%29.92 "HgN/A
6:30 PM81 °FPartly sunny.10 mph70%29.92 "HgN/A
6:00 PM81 °FPartly sunny.10 mph70%29.89 "HgN/A
5:30 PM81 °FPartly sunny.12 mph70%29.89 "HgN/A
5:00 PM81 °FPartly sunny.12 mph66%29.89 "HgN/A
4:30 PM82 °FPartly sunny.12 mph66%29.89 "HgN/A
4:00 PM82 °FPartly sunny.13 mph66%29.92 "HgN/A
3:30 PM82 °FPartly sunny.12 mph66%29.92 "HgN/A
3:00 PM82 °FPartly sunny.13 mph62%29.92 "HgN/A
2:30 PM82 °FScattered clouds.12 mph62%29.92 "HgN/A
2:00 PM84 °FScattered clouds.12 mph58%29.92 "HgN/A
1:30 PM82 °FScattered clouds.10 mph62%29.92 "HgN/A
1:00 PM82 °FPassing clouds.8 mph58%29.92 "HgN/A
12:30 PM84 °FPassing clouds.6 mph55%29.92 "HgN/A
12:00 PM82 °FPassing clouds.5 mph58%29.92 "HgN/A
11:30 AM82 °FSunny.2 mph58%29.92 "Hg10 mi
11:00 AM81 °FSunny.2 mph62%29.92 "Hg10 mi
10:30 AM81 °FSunny.1 mph62%29.89 "Hg10 mi
10:00 AM79 °FSunny.No wind61%29.89 "Hg10 mi
9:30 AM77 °FSunny.2 mph65%29.89 "Hg10 mi
9:00 AM75 °FPassing clouds.3 mph69%29.89 "HgN/A
8:30 AM73 °FSunny.2 mph74%29.89 "Hg10 mi
8:00 AM72 °FPassing clouds.3 mph78%29.89 "HgN/A
7:30 AM70 °FClear.6 mph83%29.89 "Hg10 mi
7:00 AM72 °FClear.1 mph83%29.86 "Hg10 mi
Weather by CustomWeather, © 2014

See weather overviewHow to use our weather pages